contact:dominique.lefevre@mio.osupytheas.fr, maurice.libes@osupytheas.fr, didier.mallarino@osupytheas.fr
Project:EMSO http://www.emso-fr.org/EMSO-France
Depth: 2436.0 m
Title:EMSO Ligure Ouest : Data MII capteur CSTAR
DateTime,Latitude,Longitude,Instrument_Serial,Reference_Counts,Signal_Counts,Corrected_Signal_raw_counts,Calculated_Beam_c_inverse_meters,Internal_thermistor_counts
DateTime,Latitude,Longitude,Instrument_Serial,Reference_Counts,Signal_Counts,Corrected_Signal_raw_counts,Calculated_Beam_c_inverse_meters,Internal_thermistor_counts
2019-05-20T00:02:30,42.805,6.029,CST-1368DR,9471,13256,15595,0.005,551
2019-05-20T00:05:31,42.805,6.029,CST-1368DR,9471,13258,15597,0.005,551
2019-05-20T00:08:33,42.805,6.029,CST-1368DR,9470,13258,15598,0.005,551
2019-05-20T00:11:34,42.805,6.029,CST-1368DR,9471,13256,15595,0.005,551
2019-05-20T00:14:36,42.805,6.029,CST-1368DR,9471,13257,15596,0.005,551
2019-05-20T00:17:37,42.805,6.029,CST-1368DR,9470,13256,15596,0.005,551
2019-05-20T00:20:38,42.805,6.029,CST-1368DR,9471,13257,15596,0.005,551
2019-05-20T00:23:40,42.805,6.029,CST-1368DR,9470,13257,15598,0.005,551
2019-05-20T00:26:41,42.805,6.029,CST-1368DR,9471,13258,15598,0.005,551
2019-05-20T00:29:43,42.805,6.029,CST-1368DR,9470,13256,15596,0.005,551
2019-05-20T00:32:44,42.805,6.029,CST-1368DR,9470,13258,15598,0.005,551
2019-05-20T00:35:45,42.805,6.029,CST-1368DR,9470,13253,15592,0.006,551
2019-05-20T00:38:47,42.805,6.029,CST-1368DR,9470,13256,15596,0.005,551
2019-05-20T00:41:48,42.805,6.029,CST-1368DR,9470,13257,15597,0.005,551
2019-05-20T00:44:50,42.805,6.029,CST-1368DR,9470,13256,15596,0.005,550
2019-05-20T00:47:51,42.805,6.029,CST-1368DR,9470,13256,15596,0.005,551
2019-05-20T00:50:52,42.805,6.029,CST-1368DR,9470,13257,15598,0.005,550
2019-05-20T00:53:54,42.805,6.029,CST-1368DR,9470,13257,15598,0.005,551
2019-05-20T00:56:55,42.805,6.029,CST-1368DR,9470,13256,15596,0.005,551
2019-05-20T00:59:57,42.805,6.029,CST-1368DR,9470,13256,15596,0.005,551
2019-05-20T01:02:58,42.805,6.029,CST-1368DR,9470,13255,15595,0.005,551
2019-05-20T01:06:00,42.805,6.029,CST-1368DR,9470,13255,15595,0.005,550
2019-05-20T01:09:01,42.805,6.029,CST-1368DR,9470,13256,15596,0.005,551
2019-05-20T01:12:02,42.805,6.029,CST-1368DR,9470,13256,15596,0.005,551
2019-05-20T01:15:04,42.805,6.029,CST-1368DR,9470,13254,15594,0.006,551
2019-05-20T01:18:05,42.805,6.029,CST-1368DR,9470,13254,15594,0.006,551
2019-05-20T01:21:07,42.805,6.029,CST-1368DR,9470,13256,15596,0.005,551
2019-05-20T01:24:08,42.805,6.029,CST-1368DR,9469,13255,15596,0.005,551
2019-05-20T01:27:09,42.805,6.029,CST-1368DR,9469,13253,15595,0.005,551
2019-05-20T01:30:11,42.805,6.029,CST-1368DR,9469,13255,15597,0.005,551
2019-05-20T01:33:12,42.805,6.029,CST-1368DR,9469,13255,15597,0.005,551
2019-05-20T01:36:14,42.805,6.029,CST-1368DR,9469,13254,15596,0.005,550
2019-05-20T01:39:15,42.805,6.029,CST-1368DR,9469,13256,15597,0.005,551
2019-05-20T01:42:16,42.805,6.029,CST-1368DR,9469,13255,15597,0.005,551
2019-05-20T01:45:18,42.805,6.029,CST-1368DR,9469,13255,15597,0.005,551
2019-05-20T01:48:19,42.805,6.029,CST-1368DR,9469,13255,15597,0.005,551
2019-05-20T01:51:21,42.805,6.029,CST-1368DR,9469,13254,15596,0.005,551
2019-05-20T01:54:22,42.805,6.029,CST-1368DR,9469,13254,15595,0.005,551
2019-05-20T01:57:24,42.805,6.029,CST-1368DR,9469,13249,15590,0.007,551
2019-05-20T02:00:25,42.805,6.029,CST-1368DR,9469,13254,15596,0.005,551
2019-05-20T02:03:26,42.805,6.029,CST-1368DR,9469,13254,15596,0.005,551
2019-05-20T02:06:28,42.805,6.029,CST-1368DR,9469,13252,15593,0.006,551
2019-05-20T02:09:29,42.805,6.029,CST-1368DR,9469,13255,15597,0.005,551
2019-05-20T02:12:31,42.805,6.029,CST-1368DR,9469,13249,15589,0.007,551
2019-05-20T02:15:32,42.805,6.029,CST-1368DR,9469,13255,15597,0.005,551
2019-05-20T02:18:33,42.805,6.029,CST-1368DR,9469,13256,15597,0.005,551
2019-05-20T02:21:35,42.805,6.029,CST-1368DR,9469,13255,15596,0.005,551
2019-05-20T02:24:36,42.805,6.029,CST-1368DR,9469,13256,15597,0.005,551
2019-05-20T02:27:38,42.805,6.029,CST-1368DR,9468,13254,15597,0.005,551
2019-05-20T02:30:39,42.805,6.029,CST-1368DR,9468,13254,15597,0.005,551
2019-05-20T02:33:40,42.805,6.029,CST-1368DR,9468,13254,15597,0.005,551
2019-05-20T02:36:42,42.805,6.029,CST-1368DR,9468,13253,15595,0.005,551
2019-05-20T02:39:43,42.805,6.029,CST-1368DR,9468,13254,15597,0.005,551
2019-05-20T02:42:45,42.805,6.029,CST-1368DR,9468,13254,15596,0.005,551
2019-05-20T02:45:46,42.805,6.029,CST-1368DR,9468,13250,15593,0.006,551
2019-05-20T02:48:47,42.805,6.029,CST-1368DR,9468,13254,15596,0.005,551
2019-05-20T02:51:49,42.805,6.029,CST-1368DR,9468,13254,15597,0.005,551
2019-05-20T02:54:50,42.805,6.029,CST-1368DR,9468,13252,15595,0.005,551
2019-05-20T02:57:52,42.805,6.029,CST-1368DR,9468,13255,15598,0.005,551
2019-05-20T03:00:53,42.805,6.029,CST-1368DR,9468,13254,15597,0.005,551
2019-05-20T03:03:55,42.805,6.029,CST-1368DR,9468,13254,15597,0.005,551
2019-05-20T03:06:56,42.805,6.029,CST-1368DR,9468,13254,15597,0.005,551
2019-05-20T03:09:57,42.805,6.029,CST-1368DR,9468,13248,15589,0.007,551
2019-05-20T03:12:59,42.805,6.029,CST-1368DR,9468,13253,15596,0.005,551
2019-05-20T03:16:00,42.805,6.029,CST-1368DR,9468,13253,15595,0.005,551
2019-05-20T03:19:02,42.805,6.029,CST-1368DR,9468,13254,15596,0.005,551
2019-05-20T03:22:03,42.805,6.029,CST-1368DR,9468,13254,15597,0.005,551
2019-05-20T03:25:04,42.805,6.029,CST-1368DR,9468,13255,15598,0.005,551
2019-05-20T03:28:06,42.805,6.029,CST-1368DR,9468,13254,15597,0.005,551
2019-05-20T03:31:07,42.805,6.029,CST-1368DR,9468,13254,15597,0.005,550
2019-05-20T03:34:09,42.805,6.029,CST-1368DR,9468,13254,15597,0.005,551
2019-05-20T03:37:10,42.805,6.029,CST-1368DR,9467,13253,15597,0.005,551
2019-05-20T03:40:11,42.805,6.029,CST-1368DR,9467,13252,15596,0.005,551
2019-05-20T03:43:13,42.805,6.029,CST-1368DR,9467,13245,15588,0.007,551
2019-05-20T03:46:14,42.805,6.029,CST-1368DR,9467,13253,15597,0.005,551
2019-05-20T03:49:16,42.805,6.029,CST-1368DR,9467,13254,15598,0.005,550
2019-05-20T03:52:17,42.805,6.029,CST-1368DR,9467,13253,15597,0.005,551
2019-05-20T03:55:19,42.805,6.029,CST-1368DR,9467,13251,15594,0.006,551
2019-05-20T03:58:20,42.805,6.029,CST-1368DR,9467,13248,15592,0.006,551
2019-05-20T04:01:21,42.805,6.029,CST-1368DR,9467,13252,15596,0.005,551
2019-05-20T04:04:23,42.805,6.029,CST-1368DR,9467,13253,15597,0.005,551
2019-05-20T04:07:24,42.805,6.029,CST-1368DR,9467,13252,15596,0.005,551
2019-05-20T04:10:26,42.805,6.029,CST-1368DR,9467,13253,15597,0.005,551
2019-05-20T04:13:27,42.805,6.029,CST-1368DR,9467,13252,15596,0.005,551
2019-05-20T04:16:28,42.805,6.029,CST-1368DR,9467,13252,15596,0.005,551
2019-05-20T04:19:30,42.805,6.029,CST-1368DR,9467,13253,15598,0.005,551
2019-05-20T04:22:31,42.805,6.029,CST-1368DR,9467,13253,15598,0.005,551
2019-05-20T04:25:33,42.805,6.029,CST-1368DR,9467,13251,15595,0.005,551
2019-05-20T04:28:34,42.805,6.029,CST-1368DR,9467,13253,15597,0.005,551
2019-05-20T04:31:35,42.805,6.029,CST-1368DR,9467,13252,15596,0.005,550
2019-05-20T04:34:37,42.805,6.029,CST-1368DR,9466,13253,15599,0.004,551
2019-05-20T04:37:38,42.805,6.029,CST-1368DR,9466,13251,15597,0.005,551
2019-05-20T04:40:40,42.805,6.029,CST-1368DR,9466,13252,15597,0.005,551
2019-05-20T04:43:41,42.805,6.029,CST-1368DR,9466,13252,15597,0.005,551
2019-05-20T04:46:42,42.805,6.029,CST-1368DR,9466,13252,15597,0.005,551
2019-05-20T04:49:44,42.805,6.029,CST-1368DR,9466,13251,15597,0.005,551
2019-05-20T04:52:45,42.805,6.029,CST-1368DR,9466,13250,15596,0.005,551
2019-05-20T04:55:47,42.805,6.029,CST-1368DR,9466,13251,15596,0.005,551
2019-05-20T04:58:48,42.805,6.029,CST-1368DR,9466,13252,15597,0.005,551
2019-05-20T05:01:50,42.805,6.029,CST-1368DR,9466,13251,15596,0.005,551
2019-05-20T05:04:51,42.805,6.029,CST-1368DR,9466,13251,15596,0.005,551
2019-05-20T05:07:52,42.805,6.029,CST-1368DR,9466,13250,15595,0.005,551
2019-05-20T05:10:54,42.805,6.029,CST-1368DR,9466,13251,15596,0.005,551
2019-05-20T05:13:55,42.805,6.029,CST-1368DR,9466,13249,15594,0.006,551
2019-05-20T05:16:57,42.805,6.029,CST-1368DR,9466,13250,15595,0.005,551
2019-05-20T05:19:58,42.805,6.029,CST-1368DR,9466,13250,15595,0.005,551
2019-05-20T05:22:59,42.805,6.029,CST-1368DR,9466,13251,15596,0.005,551
2019-05-20T05:26:01,42.805,6.029,CST-1368DR,9466,13250,15595,0.005,551
2019-05-20T05:29:02,42.805,6.029,CST-1368DR,9466,13251,15596,0.005,551
2019-05-20T05:32:04,42.805,6.029,CST-1368DR,9466,13251,15596,0.005,550
2019-05-20T05:35:05,42.805,6.029,CST-1368DR,9466,13250,15595,0.005,551
2019-05-20T05:38:06,42.805,6.029,CST-1368DR,9466,13250,15595,0.005,551
2019-05-20T05:41:08,42.805,6.029,CST-1368DR,9465,13246,15592,0.006,551
2019-05-20T05:44:09,42.805,6.029,CST-1368DR,9465,13250,15597,0.005,550
2019-05-20T05:47:11,42.805,6.029,CST-1368DR,9465,13251,15597,0.005,551
2019-05-20T05:50:12,42.805,6.029,CST-1368DR,9465,13250,15597,0.005,551
2019-05-20T05:53:13,42.805,6.029,CST-1368DR,9465,13250,15597,0.005,551
2019-05-20T05:56:15,42.805,6.029,CST-1368DR,9465,13251,15597,0.005,551
2019-05-20T05:59:16,42.805,6.029,CST-1368DR,9465,13249,15595,0.005,551
2019-05-20T06:02:18,42.805,6.029,CST-1368DR,9465,13250,15597,0.005,551
2019-05-20T06:05:19,42.805,6.029,CST-1368DR,9465,13248,15594,0.006,551
2019-05-20T06:08:21,42.805,6.029,CST-1368DR,9465,13249,15595,0.005,551
2019-05-20T06:11:22,42.805,6.029,CST-1368DR,9465,13249,15595,0.005,551
2019-05-20T06:14:23,42.805,6.029,CST-1368DR,9465,13248,15594,0.006,550
2019-05-20T06:17:25,42.805,6.029,CST-1368DR,9465,13245,15591,0.006,551
2019-05-20T06:20:26,42.805,6.029,CST-1368DR,9465,13250,15597,0.005,551
2019-05-20T06:23:28,42.805,6.029,CST-1368DR,9465,13249,15596,0.005,551
2019-05-20T06:26:29,42.805,6.029,CST-1368DR,9465,13249,15595,0.005,551
2019-05-20T06:29:30,42.805,6.029,CST-1368DR,9465,13249,15595,0.005,551
2019-05-20T06:32:32,42.805,6.029,CST-1368DR,9464,13248,15596,0.005,550
2019-05-20T06:35:33,42.805,6.029,CST-1368DR,9464,13248,15596,0.005,551
2019-05-20T06:38:35,42.805,6.029,CST-1368DR,9465,13249,15596,0.005,551
2019-05-20T06:41:36,42.805,6.029,CST-1368DR,9465,13249,15595,0.005,551
2019-05-20T06:44:37,42.805,6.029,CST-1368DR,9465,13244,15590,0.007,551
2019-05-20T06:47:39,42.805,6.029,CST-1368DR,9464,13248,15596,0.005,551
2019-05-20T06:50:40,42.805,6.029,CST-1368DR,9464,13249,15597,0.005,551
2019-05-20T06:53:42,42.805,6.029,CST-1368DR,9464,13248,15596,0.005,551
2019-05-20T06:56:43,42.805,6.029,CST-1368DR,9464,13249,15597,0.005,551
2019-05-20T06:59:45,42.805,6.029,CST-1368DR,9464,13249,15597,0.005,551
2019-05-20T07:02:46,42.805,6.029,CST-1368DR,9464,13247,15595,0.005,551
2019-05-20T07:05:47,42.805,6.029,CST-1368DR,9464,13249,15597,0.005,551
2019-05-20T07:08:49,42.805,6.029,CST-1368DR,9464,13248,15595,0.005,551
2019-05-20T07:11:50,42.805,6.029,CST-1368DR,9464,13249,15597,0.005,551
2019-05-20T07:14:52,42.805,6.029,CST-1368DR,9464,13249,15597,0.005,551
2019-05-20T07:17:53,42.805,6.029,CST-1368DR,9464,13247,15595,0.005,550
2019-05-20T07:20:54,42.805,6.029,CST-1368DR,9464,13249,15597,0.005,551
2019-05-20T07:23:56,42.805,6.029,CST-1368DR,9464,13248,15596,0.005,551
2019-05-20T07:26:57,42.805,6.029,CST-1368DR,9464,13247,15595,0.005,551
2019-05-20T07:29:59,42.805,6.029,CST-1368DR,9464,13247,15595,0.005,551
2019-05-20T07:33:00,42.805,6.029,CST-1368DR,9464,13248,15596,0.005,550
2019-05-20T07:36:01,42.805,6.029,CST-1368DR,9464,13248,15596,0.005,551
2019-05-20T07:39:03,42.805,6.029,CST-1368DR,9464,13248,15596,0.005,551
2019-05-20T07:42:04,42.805,6.029,CST-1368DR,9464,13248,15596,0.005,550
2019-05-20T07:45:06,42.805,6.029,CST-1368DR,9464,13247,15595,0.005,551
2019-05-20T07:48:07,42.805,6.029,CST-1368DR,9464,13248,15596,0.005,551
2019-05-20T07:51:08,42.805,6.029,CST-1368DR,9464,13248,15596,0.005,551
2019-05-20T07:54:10,42.805,6.029,CST-1368DR,9463,13246,15595,0.005,551
2019-05-20T07:57:11,42.805,6.029,CST-1368DR,9463,13248,15597,0.005,551
2019-05-20T08:00:13,42.805,6.029,CST-1368DR,9463,13247,15597,0.005,551
2019-05-20T08:03:14,42.805,6.029,CST-1368DR,9463,13248,15597,0.005,551
2019-05-20T08:06:16,42.805,6.029,CST-1368DR,9463,13245,15594,0.006,551
2019-05-20T08:09:17,42.805,6.029,CST-1368DR,9463,13248,15597,0.005,551
2019-05-20T08:12:18,42.805,6.029,CST-1368DR,9463,13247,15596,0.005,550
2019-05-20T08:15:20,42.805,6.029,CST-1368DR,9463,13247,15596,0.005,551
2019-05-20T08:18:21,42.805,6.029,CST-1368DR,9463,13247,15597,0.005,551
2019-05-20T08:21:23,42.805,6.029,CST-1368DR,9463,13247,15596,0.005,551
2019-05-20T08:24:24,42.805,6.029,CST-1368DR,9463,13245,15593,0.006,551
2019-05-20T08:27:25,42.805,6.029,CST-1368DR,9463,13248,15597,0.005,551
2019-05-20T08:30:27,42.805,6.029,CST-1368DR,9463,13247,15596,0.005,551
2019-05-20T08:33:28,42.805,6.029,CST-1368DR,9463,13247,15596,0.005,551
2019-05-20T08:36:30,42.805,6.029,CST-1368DR,9463,13245,15594,0.006,551
2019-05-20T08:39:31,42.805,6.029,CST-1368DR,9463,13246,15595,0.005,551
2019-05-20T08:42:32,42.805,6.029,CST-1368DR,9463,13246,15595,0.005,551
2019-05-20T08:45:34,42.805,6.029,CST-1368DR,9463,13246,15595,0.005,551
2019-05-20T08:48:35,42.805,6.029,CST-1368DR,9463,13247,15596,0.005,551
2019-05-20T08:51:37,42.805,6.029,CST-1368DR,9463,13246,15595,0.005,551
2019-05-20T08:54:38,42.805,6.029,CST-1368DR,9462,13247,15597,0.005,551
2019-05-20T08:57:39,42.805,6.029,CST-1368DR,9462,13247,15598,0.005,551
2019-05-20T09:00:41,42.805,6.029,CST-1368DR,9462,13245,15595,0.005,551
2019-05-20T09:03:42,42.805,6.029,CST-1368DR,9462,13244,15595,0.005,550
2019-05-20T09:06:44,42.805,6.029,CST-1368DR,9462,13245,15596,0.005,551
2019-05-20T09:09:45,42.805,6.029,CST-1368DR,9462,13246,15596,0.005,551
2019-05-20T09:12:47,42.805,6.029,CST-1368DR,9462,13244,15594,0.006,551
2019-05-20T09:15:48,42.805,6.029,CST-1368DR,9462,13244,15595,0.005,551
2019-05-20T09:18:49,42.805,6.029,CST-1368DR,9462,13244,15595,0.005,551
2019-05-20T09:21:51,42.805,6.029,CST-1368DR,9462,13246,15597,0.005,551
2019-05-20T09:24:52,42.805,6.029,CST-1368DR,9462,13244,15594,0.006,551
2019-05-20T09:27:54,42.805,6.029,CST-1368DR,9462,13243,15593,0.006,550
2019-05-20T09:30:55,42.805,6.029,CST-1368DR,9462,13245,15595,0.005,551
2019-05-20T09:33:56,42.805,6.029,CST-1368DR,9462,13245,15595,0.005,551
2019-05-20T09:36:58,42.805,6.029,CST-1368DR,9462,13242,15592,0.006,551
2019-05-20T09:39:59,42.805,6.029,CST-1368DR,9462,13244,15594,0.006,551
2019-05-20T09:43:01,42.805,6.029,CST-1368DR,9462,13242,15591,0.006,551
2019-05-20T09:46:02,42.805,6.029,CST-1368DR,9462,13244,15594,0.006,551
2019-05-20T09:49:03,42.805,6.029,CST-1368DR,9462,13245,15595,0.005,551
2019-05-20T09:52:05,42.805,6.029,CST-1368DR,9462,13245,15595,0.005,550
2019-05-20T09:55:06,42.805,6.029,CST-1368DR,9462,13245,15595,0.005,550
2019-05-20T09:58:08,42.805,6.029,CST-1368DR,9461,13246,15598,0.005,551
2019-05-20T10:01:09,42.805,6.029,CST-1368DR,9461,13238,15589,0.007,551
2019-05-20T10:04:11,42.805,6.029,CST-1368DR,9461,13242,15593,0.006,551
2019-05-20T10:07:12,42.805,6.029,CST-1368DR,9461,13243,15594,0.006,551
2019-05-20T10:10:13,42.805,6.029,CST-1368DR,9461,13242,15593,0.006,551
2019-05-20T10:13:15,42.805,6.029,CST-1368DR,9461,13245,15597,0.005,550
2019-05-20T10:16:16,42.805,6.029,CST-1368DR,9461,13245,15597,0.005,551
2019-05-20T10:19:18,42.805,6.029,CST-1368DR,9461,13244,15595,0.005,551
2019-05-20T10:22:19,42.805,6.029,CST-1368DR,9461,13245,15597,0.005,551
2019-05-20T10:25:20,42.805,6.029,CST-1368DR,9461,13244,15596,0.005,551
2019-05-20T10:28:22,42.805,6.029,CST-1368DR,9461,13244,15596,0.005,551
2019-05-20T10:31:23,42.805,6.029,CST-1368DR,9461,13244,15596,0.005,551
2019-05-20T10:34:25,42.805,6.029,CST-1368DR,9461,13245,15596,0.005,551
2019-05-20T10:37:26,42.805,6.029,CST-1368DR,9461,13244,15595,0.005,551
2019-05-20T10:40:27,42.805,6.029,CST-1368DR,9461,13243,15595,0.005,551
2019-05-20T10:43:29,42.805,6.029,CST-1368DR,9460,13243,15596,0.005,551
2019-05-20T10:46:30,42.805,6.029,CST-1368DR,9460,13244,15597,0.005,551
2019-05-20T10:49:32,42.805,6.029,CST-1368DR,9460,13244,15597,0.005,551
2019-05-20T10:52:33,42.805,6.029,CST-1368DR,9460,13244,15597,0.005,551
2019-05-20T10:55:34,42.805,6.029,CST-1368DR,9460,13243,15596,0.005,551
2019-05-20T10:58:36,42.805,6.029,CST-1368DR,9460,13242,15595,0.005,551
2019-05-20T11:01:37,42.805,6.029,CST-1368DR,9460,13243,15596,0.005,551
2019-05-20T11:04:39,42.805,6.029,CST-1368DR,9460,13242,15595,0.005,551
2019-05-20T11:07:40,42.805,6.029,CST-1368DR,9460,13241,15593,0.006,550
2019-05-20T11:10:42,42.805,6.029,CST-1368DR,9460,13239,15591,0.006,550
2019-05-20T11:13:43,42.805,6.029,CST-1368DR,9460,13241,15594,0.006,551
2019-05-20T11:16:44,42.805,6.029,CST-1368DR,9460,13242,15595,0.005,551
2019-05-20T11:19:46,42.805,6.029,CST-1368DR,9460,13243,15596,0.005,551
2019-05-20T11:22:47,42.805,6.029,CST-1368DR,9460,13241,15593,0.006,550
2019-05-20T11:25:49,42.805,6.029,CST-1368DR,9460,13243,15596,0.005,551
2019-05-20T11:28:50,42.805,6.029,CST-1368DR,9460,13243,15596,0.005,551
2019-05-20T11:31:51,42.805,6.029,CST-1368DR,9460,13241,15594,0.006,551
2019-05-20T11:34:53,42.805,6.029,CST-1368DR,9460,13242,15595,0.005,551
2019-05-20T11:37:54,42.805,6.029,CST-1368DR,9460,13242,15595,0.005,551
2019-05-20T11:40:56,42.805,6.029,CST-1368DR,9460,13242,15595,0.005,550
2019-05-20T11:43:57,42.805,6.029,CST-1368DR,9460,13243,15596,0.005,550
2019-05-20T11:46:58,42.805,6.029,CST-1368DR,9459,13241,15595,0.005,551
2019-05-20T11:50:00,42.805,6.029,CST-1368DR,9460,13242,15595,0.005,551
2019-05-20T11:53:01,42.805,6.029,CST-1368DR,9459,13239,15593,0.006,551
2019-05-20T11:56:03,42.805,6.029,CST-1368DR,9459,13242,15596,0.005,551
2019-05-20T11:59:04,42.805,6.029,CST-1368DR,9459,13241,15595,0.005,551
2019-05-20T12:02:05,42.805,6.029,CST-1368DR,9459,13242,15597,0.005,551
2019-05-20T12:05:07,42.805,6.029,CST-1368DR,9459,13241,15595,0.005,551
2019-05-20T12:08:08,42.805,6.029,CST-1368DR,9459,13244,15598,0.005,551
2019-05-20T12:11:10,42.805,6.029,CST-1368DR,9459,13242,15596,0.005,551
2019-05-20T12:14:11,42.805,6.029,CST-1368DR,9459,13242,15597,0.005,551
2019-05-20T12:17:13,42.805,6.029,CST-1368DR,9459,13242,15596,0.005,551
2019-05-20T12:20:14,42.805,6.029,CST-1368DR,9459,13242,15596,0.005,551
2019-05-20T12:23:15,42.805,6.029,CST-1368DR,9459,13239,15593,0.006,551
2019-05-20T12:26:17,42.805,6.029,CST-1368DR,9459,13237,15591,0.006,551
2019-05-20T12:29:18,42.805,6.029,CST-1368DR,9459,13232,15584,0.008,551
2019-05-20T12:32:20,42.805,6.029,CST-1368DR,9459,13238,15592,0.006,550
2019-05-20T12:35:21,42.805,6.029,CST-1368DR,9459,13241,15595,0.005,551
2019-05-20T12:38:22,42.805,6.029,CST-1368DR,9459,13240,15594,0.006,551
2019-05-20T12:41:24,42.805,6.029,CST-1368DR,9459,13241,15595,0.005,551
2019-05-20T12:44:25,42.805,6.029,CST-1368DR,9459,13240,15594,0.006,551
2019-05-20T12:47:27,42.805,6.029,CST-1368DR,9459,13241,15595,0.005,551
2019-05-20T12:50:28,42.805,6.029,CST-1368DR,9459,13241,15595,0.005,551
2019-05-20T12:53:29,42.805,6.029,CST-1368DR,9459,13238,15591,0.006,550
2019-05-20T12:56:31,42.805,6.029,CST-1368DR,9459,13241,15596,0.005,551
2019-05-20T12:59:32,42.805,6.029,CST-1368DR,9458,13241,15596,0.005,551
2019-05-20T13:02:34,42.805,6.029,CST-1368DR,9459,13241,15595,0.005,551
2019-05-20T13:05:35,42.805,6.029,CST-1368DR,9459,13242,15596,0.005,551
2019-05-20T13:08:37,42.805,6.029,CST-1368DR,9459,13239,15593,0.006,551
2019-05-20T13:11:38,42.805,6.029,CST-1368DR,9458,13242,15597,0.005,551
2019-05-20T13:14:39,42.805,6.029,CST-1368DR,9458,13239,15595,0.005,550
2019-05-20T13:17:41,42.805,6.029,CST-1368DR,9458,13240,15596,0.005,551
2019-05-20T13:20:42,42.805,6.029,CST-1368DR,9458,13241,15597,0.005,551
2019-05-20T13:23:44,42.805,6.029,CST-1368DR,9458,13240,15596,0.005,551
2019-05-20T13:26:45,42.805,6.029,CST-1368DR,9458,13241,15596,0.005,551
2019-05-20T13:29:46,42.805,6.029,CST-1368DR,9458,13241,15596,0.005,551
2019-05-20T13:32:48,42.805,6.029,CST-1368DR,9458,13241,15596,0.005,551
2019-05-20T13:35:49,42.805,6.029,CST-1368DR,9458,13240,15595,0.005,551
2019-05-20T13:38:51,42.805,6.029,CST-1368DR,9458,13238,15594,0.006,551
2019-05-20T13:41:52,42.805,6.029,CST-1368DR,9458,13237,15592,0.006,550
2019-05-20T13:44:53,42.805,6.029,CST-1368DR,9458,13241,15596,0.005,551
2019-05-20T13:47:55,42.805,6.029,CST-1368DR,9458,13241,15597,0.005,551
2019-05-20T13:50:56,42.805,6.029,CST-1368DR,9458,13239,15594,0.006,551
2019-05-20T13:53:58,42.805,6.029,CST-1368DR,9458,13239,15594,0.006,551
2019-05-20T13:56:59,42.805,6.029,CST-1368DR,9458,13239,15595,0.005,551
2019-05-20T14:00:00,42.805,6.029,CST-1368DR,9458,13240,15596,0.005,551
2019-05-20T14:03:02,42.805,6.029,CST-1368DR,9458,13237,15592,0.006,551
2019-05-20T14:06:03,42.805,6.029,CST-1368DR,9458,13239,15595,0.005,551
2019-05-20T14:09:05,42.805,6.029,CST-1368DR,9458,13240,15596,0.005,551
2019-05-20T14:12:06,42.805,6.029,CST-1368DR,9457,13239,15595,0.005,551
2019-05-20T14:15:08,42.805,6.029,CST-1368DR,9458,13239,15595,0.005,551
2019-05-20T14:18:09,42.805,6.029,CST-1368DR,9457,13240,15597,0.005,551
2019-05-20T14:21:10,42.805,6.029,CST-1368DR,9457,13239,15596,0.005,550
2019-05-20T14:24:12,42.805,6.029,CST-1368DR,9457,13239,15596,0.005,551
2019-05-20T14:27:13,42.805,6.029,CST-1368DR,9457,13238,15595,0.005,551
2019-05-20T14:30:15,42.805,6.029,CST-1368DR,9457,13239,15596,0.005,550
2019-05-20T14:33:16,42.805,6.029,CST-1368DR,9457,13238,15595,0.005,550
2019-05-20T14:36:17,42.805,6.029,CST-1368DR,9457,13238,15594,0.006,551
2019-05-20T14:39:19,42.805,6.029,CST-1368DR,9457,13239,15596,0.005,551
2019-05-20T14:42:20,42.805,6.029,CST-1368DR,9457,13237,15594,0.006,551
2019-05-20T14:45:22,42.805,6.029,CST-1368DR,9457,13238,15595,0.005,551
2019-05-20T14:48:23,42.805,6.029,CST-1368DR,9457,13239,15595,0.005,551
2019-05-20T14:51:24,42.805,6.029,CST-1368DR,9457,13238,15595,0.005,550
2019-05-20T14:54:26,42.805,6.029,CST-1368DR,9457,13239,15596,0.005,551
2019-05-20T14:57:27,42.805,6.029,CST-1368DR,9457,13239,15595,0.005,550
2019-05-20T15:00:29,42.805,6.029,CST-1368DR,9457,13239,15596,0.005,551
2019-05-20T15:03:30,42.805,6.029,CST-1368DR,9457,13238,15594,0.006,551
2019-05-20T15:06:32,42.805,6.029,CST-1368DR,9457,13238,15594,0.006,551
2019-05-20T15:09:33,42.805,6.029,CST-1368DR,9457,13239,15595,0.005,551
2019-05-20T15:12:34,42.805,6.029,CST-1368DR,9457,13239,15596,0.005,551
2019-05-20T15:15:36,42.805,6.029,CST-1368DR,9457,13239,15595,0.005,551
2019-05-20T15:18:37,42.805,6.029,CST-1368DR,9457,13239,15595,0.005,551
2019-05-20T15:21:39,42.805,6.029,CST-1368DR,9457,13236,15592,0.006,551
2019-05-20T15:24:40,42.805,6.029,CST-1368DR,9457,13238,15595,0.005,551
2019-05-20T15:27:41,42.805,6.029,CST-1368DR,9456,13234,15591,0.006,551
2019-05-20T15:30:43,42.805,6.029,CST-1368DR,9457,13237,15594,0.006,551
2019-05-20T15:33:44,42.805,6.029,CST-1368DR,9456,13238,15597,0.005,551
2019-05-20T15:36:46,42.805,6.029,CST-1368DR,9456,13236,15594,0.006,551
2019-05-20T15:39:47,42.805,6.029,CST-1368DR,9456,13238,15596,0.005,551
2019-05-20T15:42:48,42.805,6.029,CST-1368DR,9456,13238,15596,0.005,550
2019-05-20T15:45:50,42.805,6.029,CST-1368DR,9456,13238,15596,0.005,550
2019-05-20T15:48:51,42.805,6.029,CST-1368DR,9456,13235,15592,0.006,550
2019-05-20T15:51:53,42.805,6.029,CST-1368DR,9456,13235,15593,0.006,551
2019-05-20T15:54:54,42.805,6.029,CST-1368DR,9456,13231,15588,0.007,551
2019-05-20T15:57:55,42.805,6.029,CST-1368DR,9456,13237,15595,0.005,551
2019-05-20T16:00:57,42.805,6.029,CST-1368DR,9456,13237,15595,0.005,551
2019-05-20T16:03:58,42.805,6.029,CST-1368DR,9456,13237,15595,0.005,551
2019-05-20T16:07:00,42.805,6.029,CST-1368DR,9456,13237,15595,0.005,551
2019-05-20T16:10:01,42.805,6.029,CST-1368DR,9456,13237,15595,0.005,551
2019-05-20T16:13:03,42.805,6.029,CST-1368DR,9456,13237,15594,0.006,551
2019-05-20T16:16:04,42.805,6.029,CST-1368DR,9456,13237,15595,0.005,550
2019-05-20T16:19:05,42.805,6.029,CST-1368DR,9456,13235,15593,0.006,551
2019-05-20T16:22:07,42.805,6.029,CST-1368DR,9456,13237,15595,0.005,551
2019-05-20T16:25:08,42.805,6.029,CST-1368DR,9456,13235,15593,0.006,551
2019-05-20T16:28:10,42.805,6.029,CST-1368DR,9456,13237,15595,0.005,551
2019-05-20T16:31:11,42.805,6.029,CST-1368DR,9456,13237,15595,0.005,551
2019-05-20T16:34:12,42.805,6.029,CST-1368DR,9456,13236,15594,0.006,551
2019-05-20T16:37:14,42.805,6.029,CST-1368DR,9456,13236,15594,0.006,551